DELTA 1 R/B (20323 NORAD) Tracking and Keplerian Element Data

This shows tracking and keplerian element data for the satellite.

Feedback or suggestion? Click here.




ElementValue
Catalog20323
NameDELTA 1 R/B
Epoch Orbit67645
Epoch Day15.89798158
Epoch Year2022
RAAN81.9293
Inclination97.1055
Eccentricity0.0070886
Argument of Perigee213.6641
Mean Anonmoly146.0043
Mean Motion14.48449035
Decay Rate1.19E-06
L11 20323U 89089B 22015.89798158 .00000119 00000+0 39878-4 0 9998
L22 20323 97.1055 81.9293 0070886 213.6641 146.0043 14.48449035676451

Live tracking and technical data element details for DELTA 1 R/B (NORAD 20323). DELTA 1 R/B can be tracked NOW for your location showing map with azimuth and elevation plus other details from your city location.

Track the satellite on the map from your city or location and see movement details for azimuth, elevation, latitude, longitude, range, height, and movement on the map or in text.







IsCatalogInMostPopularTable: catalog: 20323, numindb: 355
Update: records affected: 1



GetName: 20323 DELTA 1 R/B

Hit Count: updated at: Mon, 17 Jan 2022 00:53:35 GMT